SIC0106 LIML-LICA

Flight info

Callsign SIC0106
Flight time 1h 17m
Altitude 37000
Route LOGDI DCT LOMED DCT ALAXI DCT EVINO/N0385F190 M620 ARBUM
Aircraft B38M/M-SDE1FGHILORVWXY/HB1

Departure

Time 2026-05-07 19:02
Airport Milano Linate Airport (LIML)

Arrival

Time 2026-05-07 20:19
Airport Lamezia Terme Sant'Eufemia International Airport (LICA)
Time Latitude Longitude Altitude Speed Heading
2026-05-07 18:39 45.45769 9.28067 362 ft 0 kts 90°
2026-05-07 18:53 45.45769 9.28070 362 ft 1 kts 90°
2026-05-07 18:53 45.45766 9.28091 368 ft 2 kts 117°
2026-05-07 18:53 45.45757 9.28111 364 ft 2 kts 135°
2026-05-07 18:54 45.45736 9.28131 362 ft 6 kts 149°
2026-05-07 18:54 45.45684 9.28164 364 ft 8 kts 181°
2026-05-07 18:54 45.45620 9.28158 362 ft 10 kts 186°
2026-05-07 18:54 45.45543 9.28159 362 ft 12 kts 179°
2026-05-07 18:55 45.45451 9.28151 364 ft 14 kts 186°
2026-05-07 18:55 45.45351 9.28114 364 ft 16 kts 200°
2026-05-07 18:55 45.45244 9.28065 368 ft 14 kts 188°
2026-05-07 18:55 45.45147 9.28054 362 ft 15 kts 180°
2026-05-07 18:56 45.45038 9.28056 363 ft 17 kts 185°
2026-05-07 18:56 45.44940 9.27990 364 ft 16 kts 226°
2026-05-07 18:56 45.44840 9.27951 369 ft 16 kts 179°
2026-05-07 18:56 45.44722 9.27960 365 ft 18 kts 176°
2026-05-07 18:57 45.44590 9.27973 369 ft 20 kts 176°
2026-05-07 18:57 45.44450 9.27982 363 ft 21 kts 179°
2026-05-07 18:57 45.44302 9.28002 363 ft 22 kts 174°
2026-05-07 18:57 45.44142 9.28023 368 ft 21 kts 177°
2026-05-07 18:58 45.44000 9.28033 364 ft 22 kts 177°
2026-05-07 18:58 45.43845 9.28043 363 ft 24 kts 177°
2026-05-07 18:58 45.43674 9.28054 363 ft 25 kts 177°
2026-05-07 18:58 45.43568 9.28078 365 ft 9 kts 173°
2026-05-07 18:59 45.43493 9.28071 363 ft 12 kts 202°
2026-05-07 18:59 45.43447 9.27991 369 ft 0 kts 252°
2026-05-07 18:59 45.43446 9.27984 366 ft 4 kts 258°
2026-05-07 18:59 45.43441 9.27940 365 ft 0 kts 262°
2026-05-07 19:00 45.43441 9.27939 363 ft 1 kts 262°
2026-05-07 19:01 45.43440 9.27890 367 ft 9 kts 283°
2026-05-07 19:01 45.43730 9.27753 364 ft 87 kts 360°
2026-05-07 19:01 45.44590 9.27684 369 ft 157 kts 354°
2026-05-07 19:01 45.45782 9.27543 783 ft 185 kts 355°
2026-05-07 19:02 45.47120 9.27445 1597 ft 191 kts
2026-05-07 19:02 45.48413 9.27675 2632 ft 189 kts
2026-05-07 19:02 45.49725 9.27922 3485 ft 191 kts
2026-05-07 19:02 45.50985 9.28483 4298 ft 195 kts 38°
2026-05-07 19:03 45.51769 9.29991 5165 ft 192 kts 59°
2026-05-07 19:03 45.52443 9.31722 5721 ft 213 kts 75°
2026-05-07 19:03 45.52320 9.33889 6140 ft 236 kts 119°
2026-05-07 19:03 45.51118 9.35541 6764 ft 252 kts 151°
2026-05-07 19:04 45.49591 9.36928 7367 ft 271 kts 134°
2026-05-07 19:04 45.48545 9.39188 8105 ft 283 kts 119°
2026-05-07 19:04 45.47502 9.41570 9154 ft 285 kts 123°
2026-05-07 19:04 45.46399 9.43953 10069 ft 291 kts 123°
2026-05-07 19:05 45.45262 9.46386 10708 ft 306 kts 124°
2026-05-07 19:05 45.44037 9.48991 11160 ft 327 kts 124°
2026-05-07 19:05 45.42736 9.51744 11699 ft 342 kts 125°
2026-05-07 19:05 45.41379 9.54604 12381 ft 351 kts 125°
2026-05-07 19:06 45.40003 9.57501 13258 ft 356 kts 126°
2026-05-07 19:06 45.36872 9.62991 14772 ft 361 kts 147°
2026-05-07 19:06 45.34740 9.64911 15515 ft 365 kts 150°
2026-05-07 19:07 45.32574 9.66836 16268 ft 369 kts 150°
2026-05-07 19:07 45.30378 9.68766 17015 ft 374 kts 150°
2026-05-07 19:07 45.28151 9.70712 17727 ft 378 kts 150°
2026-05-07 19:07 45.25892 9.72679 18416 ft 383 kts 150°
2026-05-07 19:08 45.23614 9.74659 19029 ft 387 kts 151°
2026-05-07 19:08 45.21309 9.76660 19638 ft 391 kts 151°
2026-05-07 19:08 45.18977 9.78683 20249 ft 394 kts 151°
2026-05-07 19:08 45.16625 9.80722 20845 ft 398 kts 151°
2026-05-07 19:09 45.14239 9.82787 21462 ft 401 kts 152°
2026-05-07 19:09 45.11866 9.84840 22111 ft 404 kts 152°
2026-05-07 19:09 45.09451 9.86926 22669 ft 408 kts 152°
2026-05-07 19:09 45.07016 9.89028 23259 ft 412 kts 152°
2026-05-07 19:10 45.04565 9.91141 23770 ft 416 kts 152°
2026-05-07 19:10 45.02077 9.93284 24257 ft 419 kts 152°
2026-05-07 19:10 44.99582 9.95431 24712 ft 422 kts 153°
2026-05-07 19:10 44.97067 9.97593 25184 ft 425 kts 153°
2026-05-07 19:11 44.94535 9.99767 25596 ft 429 kts 153°
2026-05-07 19:11 44.92012 10.01931 26066 ft 431 kts 154°
2026-05-07 19:11 44.89440 10.04135 26519 ft 434 kts 154°
2026-05-07 19:11 44.86849 10.06353 26957 ft 437 kts 154°
2026-05-07 19:12 44.84242 10.08583 27397 ft 440 kts 154°
2026-05-07 19:12 44.81614 10.10828 27808 ft 443 kts 154°
2026-05-07 19:12 44.78967 10.13086 28233 ft 446 kts 154°
2026-05-07 19:12 44.76306 10.15355 28632 ft 449 kts 154°
2026-05-07 19:13 44.73635 10.17630 28992 ft 452 kts 155°
2026-05-07 19:13 44.71019 10.19964 29316 ft 461 kts 149°
2026-05-07 19:13 44.68549 10.22913 29711 ft 467 kts 146°
2026-05-07 19:13 44.66129 10.25801 30041 ft 470 kts 146°
2026-05-07 19:14 44.63631 10.28774 30288 ft 475 kts 146°
2026-05-07 19:14 44.61105 10.31781 30725 ft 476 kts 146°
2026-05-07 19:14 44.58573 10.34792 31046 ft 479 kts 146°
2026-05-07 19:14 44.56026 10.37817 31395 ft 480 kts 146°
2026-05-07 19:15 44.53475 10.40845 31736 ft 482 kts 147°
2026-05-07 19:15 44.50947 10.43842 32044 ft 485 kts 147°
2026-05-07 19:15 44.48357 10.46907 32292 ft 489 kts 147°
2026-05-07 19:15 44.45754 10.49984 32625 ft 490 kts 147°
2026-05-07 19:16 44.43150 10.53060 32993 ft 490 kts 147°
2026-05-07 19:16 44.40533 10.56147 33456 ft 489 kts 147°
2026-05-07 19:16 44.37938 10.59205 33920 ft 487 kts 147°
2026-05-07 19:16 44.35362 10.62237 34318 ft 486 kts 147°
2026-05-07 19:17 44.32773 10.65279 34699 ft 485 kts 147°
2026-05-07 19:17 44.31057 10.67294 34964 ft 484 kts 147°
2026-05-07 19:17 44.27616 10.71329 35442 ft 483 kts 147°
2026-05-07 19:17 44.25053 10.74331 35835 ft 481 kts 147°
2026-05-07 19:18 44.22492 10.77325 36170 ft 481 kts 147°
2026-05-07 19:18 44.20796 10.79308 36383 ft 480 kts 147°
2026-05-07 19:18 44.18260 10.82269 36737 ft 479 kts 147°
2026-05-07 19:18 44.14863 10.86229 37108 ft 479 kts 147°
2026-05-07 19:19 44.10636 10.91150 37061 ft 477 kts 147°
2026-05-07 19:19 44.05563 10.97043 37058 ft 476 kts 147°
2026-05-07 19:20 44.00447 11.02682 37039 ft 472 kts 150°
2026-05-07 19:20 43.94372 11.09162 37006 ft 473 kts 150°
2026-05-07 19:21 43.90053 11.13777 36998 ft 473 kts 150°
2026-05-07 19:21 43.84829 11.19347 36991 ft 472 kts 150°
2026-05-07 19:22 43.79618 11.24892 36990 ft 472 kts 150°
2026-05-07 19:22 43.74437 11.30393 37012 ft 472 kts 150°
2026-05-07 19:23 43.69228 11.35910 37029 ft 472 kts 150°
2026-05-07 19:23 43.64024 11.41410 36990 ft 472 kts 150°
2026-05-07 19:24 43.58837 11.46880 37025 ft 472 kts 150°
2026-05-07 19:24 43.53637 11.52351 37011 ft 471 kts 150°
2026-05-07 19:25 43.48498 11.57746 37013 ft 472 kts 150°
2026-05-07 19:25 43.43303 11.63187 36979 ft 472 kts 151°
2026-05-07 19:26 43.38105 11.68619 36984 ft 471 kts 151°
2026-05-07 19:26 43.32889 11.74059 36994 ft 472 kts 151°
2026-05-07 19:27 43.27689 11.79470 36990 ft 472 kts 151°
2026-05-07 19:27 43.22472 11.84887 37007 ft 472 kts 151°
2026-05-07 19:28 43.17261 11.90286 36985 ft 471 kts 151°
2026-05-07 19:28 43.12055 11.95668 36985 ft 471 kts 151°
2026-05-07 19:29 43.06866 12.01021 36987 ft 470 kts 151°
2026-05-07 19:29 43.01643 12.06396 36976 ft 471 kts 151°
2026-05-07 19:30 42.96438 12.11742 36972 ft 470 kts 151°
2026-05-07 19:30 42.91233 12.17076 36974 ft 469 kts 151°
2026-05-07 19:31 42.86018 12.22408 36978 ft 469 kts 151°
2026-05-07 19:31 42.80808 12.27724 36972 ft 469 kts 151°
2026-05-07 19:32 42.75606 12.33021 36960 ft 469 kts 151°
2026-05-07 19:32 42.70390 12.38319 36972 ft 468 kts 151°
2026-05-07 19:33 42.65186 12.43596 36965 ft 468 kts 151°
2026-05-07 19:33 42.59972 12.48871 36979 ft 468 kts 151°
2026-05-07 19:34 42.54763 12.54129 36979 ft 468 kts 151°
2026-05-07 19:34 42.49553 12.59377 36986 ft 467 kts 151°
2026-05-07 19:35 42.44378 12.64579 36982 ft 467 kts 151°
2026-05-07 19:35 42.39177 12.69795 36992 ft 467 kts 151°
2026-05-07 19:36 42.33979 12.75000 36979 ft 465 kts 151°
2026-05-07 19:36 42.28794 12.80177 36968 ft 467 kts 151°
2026-05-07 19:37 42.23571 12.85384 36979 ft 468 kts 151°
2026-05-07 19:37 42.18362 12.90565 36975 ft 468 kts 151°
2026-05-07 19:38 42.13151 12.95737 36989 ft 466 kts 151°
2026-05-07 19:38 42.07949 13.00890 36979 ft 467 kts 151°
2026-05-07 19:39 42.02700 13.06078 36979 ft 467 kts 151°
2026-05-07 19:39 41.97526 13.11181 36994 ft 467 kts 151°
2026-05-07 19:40 41.92306 13.16321 36978 ft 469 kts 152°
2026-05-07 19:40 41.87060 13.21478 36980 ft 469 kts 152°
2026-05-07 19:41 41.81789 13.26647 36951 ft 470 kts 152°
2026-05-07 19:41 41.76514 13.31809 36961 ft 470 kts 152°
2026-05-07 19:42 41.71355 13.36969 36973 ft 472 kts 150°
2026-05-07 19:42 41.66134 13.42264 36963 ft 471 kts 150°
2026-05-07 19:43 41.60913 13.47541 36941 ft 471 kts 150°
2026-05-07 19:43 41.55693 13.52807 36955 ft 474 kts 151°
2026-05-07 19:44 41.50463 13.58072 36952 ft 475 kts 151°
2026-05-07 19:44 41.45193 13.63366 36938 ft 475 kts 151°
2026-05-07 19:45 41.39948 13.68624 36937 ft 475 kts 151°
2026-05-07 19:45 41.34667 13.73906 36951 ft 475 kts 152°
2026-05-07 19:46 41.29412 13.79153 36946 ft 473 kts 152°
2026-05-07 19:46 41.24153 13.84391 36929 ft 473 kts 152°
2026-05-07 19:47 41.18936 13.89577 36930 ft 473 kts 152°
2026-05-07 19:47 41.13653 13.94819 36871 ft 471 kts 153°
2026-05-07 19:48 41.08426 13.99994 36922 ft 471 kts 154°
2026-05-07 19:48 41.03204 14.05154 36920 ft 470 kts 154°
2026-05-07 19:49 40.97957 14.10328 36911 ft 470 kts 154°
2026-05-07 19:49 40.92760 14.15443 36934 ft 470 kts 154°
2026-05-07 19:50 40.87521 14.20587 36933 ft 470 kts 154°
2026-05-07 19:50 40.82288 14.25717 36941 ft 470 kts 156°
2026-05-07 19:51 40.77049 14.30842 36899 ft 470 kts 156°
2026-05-07 19:51 40.71811 14.35955 36903 ft 470 kts 156°
2026-05-07 19:52 40.66572 14.41059 36898 ft 470 kts 156°
2026-05-07 19:52 40.61336 14.46151 36916 ft 468 kts 156°
2026-05-07 19:53 40.56111 14.51220 36899 ft 467 kts 156°
2026-05-07 19:53 40.50894 14.56273 36895 ft 467 kts 156°
2026-05-07 19:54 40.45656 14.61332 35623 ft 476 kts 155°
2026-05-07 19:54 40.42982 14.63916 35015 ft 474 kts 154°
2026-05-07 19:54 40.40341 14.66466 34398 ft 471 kts 154°
2026-05-07 19:55 40.37712 14.68998 33754 ft 469 kts 154°
2026-05-07 19:55 40.35090 14.71520 32924 ft 470 kts 153°
2026-05-07 19:55 40.32491 14.74019 32061 ft 472 kts 152°
2026-05-07 19:55 40.29834 14.76569 31182 ft 475 kts 152°
2026-05-07 19:56 40.27169 14.79127 30428 ft 475 kts 151°
2026-05-07 19:56 40.24509 14.81677 29812 ft 471 kts 150°
2026-05-07 19:56 40.21880 14.84194 29137 ft 468 kts 150°
2026-05-07 19:56 40.19285 14.86676 28252 ft 459 kts 150°
2026-05-07 19:57 40.16716 14.89132 27171 ft 455 kts 149°
2026-05-07 19:57 40.14188 14.91545 26322 ft 447 kts 149°
2026-05-07 19:57 40.11683 14.93932 25790 ft 443 kts 149°
2026-05-07 19:57 40.09199 14.96300 25247 ft 440 kts 149°
2026-05-07 19:58 40.06733 14.98649 24700 ft 438 kts 148°
2026-05-07 19:58 40.04286 15.00976 24143 ft 436 kts 148°
2026-05-07 19:58 40.01844 15.03296 23585 ft 434 kts 148°
2026-05-07 19:58 39.99404 15.05612 22938 ft 432 kts 147°
2026-05-07 19:59 39.96983 15.07908 22368 ft 429 kts 147°
2026-05-07 19:59 39.94591 15.10175 21824 ft 425 kts 147°
2026-05-07 19:59 39.92207 15.12432 21295 ft 421 kts 147°
2026-05-07 19:59 39.89850 15.14662 20759 ft 417 kts 148°
2026-05-07 20:00 39.87511 15.16874 20260 ft 413 kts 148°
2026-05-07 20:00 39.85230 15.19030 19772 ft 410 kts 147°
2026-05-07 20:00 39.82931 15.21200 19276 ft 406 kts 147°
2026-05-07 20:00 39.80652 15.23350 18788 ft 403 kts 147°
2026-05-07 20:01 39.78386 15.25486 18313 ft 401 kts 147°
2026-05-07 20:01 39.76140 15.27601 17768 ft 398 kts 147°
2026-05-07 20:01 39.73916 15.29693 17261 ft 394 kts 147°
2026-05-07 20:01 39.71713 15.31773 16789 ft 389 kts 146°
2026-05-07 20:02 39.69655 15.34065 16274 ft 388 kts 142°
2026-05-07 20:02 39.67636 15.36351 15854 ft 383 kts 142°
2026-05-07 20:02 39.65629 15.38600 15418 ft 379 kts 142°
2026-05-07 20:02 39.63641 15.40814 14984 ft 375 kts 142°
2026-05-07 20:03 39.61668 15.43005 14554 ft 372 kts 142°
2026-05-07 20:03 39.59721 15.45164 14136 ft 368 kts 142°
2026-05-07 20:03 39.57779 15.47316 13693 ft 365 kts 142°
2026-05-07 20:03 39.55864 15.49436 13227 ft 362 kts 142°
2026-05-07 20:04 39.53984 15.51516 12804 ft 358 kts 142°
2026-05-07 20:04 39.52098 15.53600 12385 ft 353 kts 141°
2026-05-07 20:04 39.50231 15.55662 11971 ft 349 kts 141°
2026-05-07 20:04 39.48395 15.57688 11564 ft 346 kts 141°
2026-05-07 20:05 39.46572 15.59698 11173 ft 342 kts 141°
2026-05-07 20:05 39.44789 15.61663 10980 ft 332 kts 141°
2026-05-07 20:05 39.43060 15.63567 10814 ft 321 kts 140°
2026-05-07 20:05 39.41405 15.65388 10678 ft 311 kts 141°
2026-05-07 20:06 39.39778 15.67177 10521 ft 302 kts 141°
2026-05-07 20:06 39.38199 15.68913 10382 ft 293 kts 141°
2026-05-07 20:06 39.36672 15.70590 10242 ft 285 kts 141°
2026-05-07 20:06 39.35184 15.72224 10115 ft 276 kts 141°
2026-05-07 20:07 39.33740 15.73808 9931 ft 270 kts 141°
2026-05-07 20:07 39.32310 15.75376 9630 ft 269 kts 141°
2026-05-07 20:07 39.30897 15.76925 9316 ft 267 kts 141°
2026-05-07 20:07 39.29483 15.78474 9036 ft 265 kts 140°
2026-05-07 20:08 39.28556 15.79490 8847 ft 263 kts 140°
2026-05-07 20:08 39.27162 15.81015 8552 ft 261 kts 140°
2026-05-07 20:08 39.25781 15.82526 8252 ft 260 kts 140°
2026-05-07 20:08 39.24407 15.84028 7987 ft 257 kts 140°
2026-05-07 20:09 39.23052 15.85508 7722 ft 254 kts 140°
2026-05-07 20:09 39.21711 15.86973 7464 ft 252 kts 140°
2026-05-07 20:09 39.20332 15.88334 7183 ft 250 kts 153°
2026-05-07 20:10 39.17041 15.89684 6614 ft 247 kts 162°
2026-05-07 20:10 39.15400 15.90301 6351 ft 245 kts 162°
2026-05-07 20:10 39.13763 15.90908 6060 ft 243 kts 161°
2026-05-07 20:10 39.12144 15.91503 5778 ft 241 kts 161°
2026-05-07 20:11 39.10538 15.92089 5512 ft 238 kts 161°
2026-05-07 20:11 39.08966 15.92660 5372 ft 230 kts 161°
2026-05-07 20:11 39.07457 15.93208 5280 ft 220 kts 161°
2026-05-07 20:11 39.06020 15.93729 5176 ft 210 kts 161°
2026-05-07 20:12 39.04657 15.94222 5083 ft 203 kts 161°
2026-05-07 20:12 39.03331 15.94744 5091 ft 187 kts 156°
2026-05-07 20:12 39.02160 15.95316 4935 ft 178 kts 157°
2026-05-07 20:12 39.01030 15.95866 4690 ft 173 kts 156°
2026-05-07 20:13 38.99891 15.96416 4493 ft 180 kts 156°
2026-05-07 20:13 38.98693 15.96991 4300 ft 188 kts 156°
2026-05-07 20:13 38.97458 15.97581 4075 ft 190 kts 156°
2026-05-07 20:13 38.96224 15.98169 3852 ft 189 kts 156°
2026-05-07 20:14 38.94990 15.98756 3640 ft 190 kts 157°
2026-05-07 20:14 38.93889 15.99652 3403 ft 186 kts 129°
2026-05-07 20:14 38.93377 16.01061 3254 ft 168 kts 103°
2026-05-07 20:14 38.93158 16.02519 3051 ft 168 kts 102°
2026-05-07 20:15 38.92954 16.04003 2892 ft 168 kts 101°
2026-05-07 20:15 38.92764 16.05456 2700 ft 162 kts 101°
2026-05-07 20:15 38.92593 16.06818 2578 ft 148 kts 101°
2026-05-07 20:15 38.92435 16.08098 2353 ft 147 kts 101°
2026-05-07 20:16 38.92277 16.09371 2145 ft 143 kts 101°
2026-05-07 20:16 38.92123 16.10607 1928 ft 139 kts 99°
2026-05-07 20:16 38.91982 16.11811 1775 ft 134 kts 98°
2026-05-07 20:16 38.91847 16.12989 1592 ft 132 kts 98°
2026-05-07 20:17 38.91713 16.14129 1376 ft 128 kts 98°
2026-05-07 20:17 38.91579 16.15267 1220 ft 130 kts 98°
2026-05-07 20:17 38.91446 16.16409 1067 ft 129 kts 96°
2026-05-07 20:17 38.91313 16.17573 860 ft 133 kts 96°
2026-05-07 20:18 38.91181 16.18723 716 ft 129 kts 96°
2026-05-07 20:18 38.91046 16.19877 550 ft 129 kts 96°
2026-05-07 20:18 38.90915 16.21007 403 ft 126 kts 95°
2026-05-07 20:18 38.90785 16.22086 186 ft 130 kts 95°
2026-05-07 20:19 38.90665 16.23216 41 ft 121 kts 92°
2026-05-07 20:19 38.90566 16.24100 33 ft 66 kts 101°
2026-05-07 20:19 38.90514 16.24533 38 ft 41 kts 98°
2026-05-07 20:19 38.90513 16.24847 39 ft 34 kts 73°
2026-05-07 20:20 38.90627 16.25021 42 ft 21 kts 10°
2026-05-07 20:20 38.90686 16.24987 41 ft 8 kts 304°
2026-05-07 20:20 38.90728 16.24916 41 ft 11 kts 321°
2026-05-07 20:20 38.90781 16.24858 40 ft 0 kts 314°
2026-05-07 20:21 38.90786 16.24850 40 ft 4 kts 307°
2026-05-07 20:21 38.90823 16.24837 40 ft 8 kts 13°
2026-05-07 20:21 38.90828 16.24838 40 ft 0 kts